FW9243 Weather Reports


time (UTC)temp
F
wind
direction
speed
knots
gust
knots
rain 1hr
in
rain 24hr
in
rain mn
in
humidity
%
barometer
mb
20260507015953 48 45 0.0 1.7 0.00 0.02 0.00 93 1012.1
20260507015447 48 135 0.0 1.7 0.00 0.02 0.00 93 1012.1
20260507014942 48 63 0.9 1.7 0.00 0.02 0.00 93 1012.2
20260507014538 0 0 0.0 0.9 0.00 0.23 0.00 100 1012.7
20260507014443 48 45 0.0 0.9 0.00 0.02 0.00 93 1012.2
20260507013938 48 269 0.0 1.7 0.00 0.02 0.00 93 1012.2
20260507013659 48 168 0.0 1.7 0.00 0.02 0.00 93 1012.3
20260507013417 48 165 0.9 1.7 0.00 0.02 0.00 93 1012.3
20260507013033 0 0.0 0.9 0.00 0.23 0.00 1012.9
20260507012437 49 1 0.0 1.7 0.00 0.02 0.00 93 1012.4
20260507011936 49 168 1.7 1.7 0.00 0.02 0.00 93 1012.4
20260507011539 48 0.0 0.9 0.00 0.23 0.00 100 1013.0
20260507011437 48 152 1.7 1.7 0.00 0.02 0.00 92 1012.5
20260507010936 49 178 0.9 1.7 0.00 0.02 0.00 92 1012.5
20260507010654 49 178 0.0 0.9 0.00 0.02 0.00 92 1012.6
20260507010057 0 0 0.0 0.9 0.00 0.23 0.00 100 1013.1
20260507005935 49 165 0.9 0.9 0.00 0.02 0.00 92 1012.6
20260507005705 49 165 0.0 0.9 0.00 0.02 0.00 92 1012.6
20260507004935 49 152 0.0 0.9 0.00 0.02 0.00 92 1012.6
20260507004538 0 0 0.0 0.9 0.00 0.23 0.00 100 1013.1
20260507004437 49 1 0.0 0.9 0.00 0.02 0.00 92 1012.6
20260507004156 49 269 0.9 0.9 0.00 0.02 0.00 92 1012.6
20260507003656 50 223 0.0 0.9 0.00 0.02 0.00 92 1012.5
20260507003200 50 45 0.0 0.9 0.00 0.02 0.00 92 1012.5
20260507003040 0 0 0.0 0.9 0.00 0.23 0.00 100 1013.1
20260507002436 50 152 0.0 0.9 0.00 0.02 0.00 92 1012.6
20260507001935 50 178 0.0 0.9 0.00 0.02 0.00 92 1012.7
20260507001540 0 0.0 0.0 0.00 0.23 0.00 1013.2
20260507001434 50 269 0.9 0.9 0.00 0.02 0.00 92 1012.6
20260507000935 50 152 0.9 0.9 0.00 0.02 0.00 91 1012.7
20260507000435 50 269 0.0 1.7 0.00 0.02 0.00 91 1012.7
20260507000042 0 0.9 0.9 0.00 0.23 0.00 100 1013.3
20260506235934 50 1 0.0 1.7 0.00 0.02 0.00 91 1012.9
20260506235434 50 45 0.0 0.9 0.00 0.02 0.00 91 1012.9
20260506234934 51 161 0.0 0.9 0.00 0.02 0.00 91 1012.9
20260506234654 51 89 0.0 0.9 0.00 0.02 0.00 91 1013.0
20260506234540 0 0 0.0 0.0 0.00 0.23 0.00 1013.4
20260506233934 51 45 0.0 1.7 0.00 0.02 0.00 91 1013.1
20260506233434 51 45 0.0 1.7 0.00 0.02 0.00 91 1013.1
20260506233038 51 158 0.9 0.9 0.00 0.23 0.00 100 1013.5
20260506232933 51 152 0.9 1.7 0.00 0.02 0.00 91 1013.1
20260506232433 51 109 0.9 1.7 0.00 0.02 0.00 91 1013.1
20260506231933 51 76 0.9 1.7 0.00 0.02 0.00 90 1013.1
20260506231551 0 51 0.0 0.0 0.00 0.23 0.00 100 1013.6
20260506231433 51 178 0.0 0.9 0.00 0.02 0.00 90 1013.1
20260506230933 52 20 0.0 0.9 0.00 0.02 0.00 90 1013.1
20260506230433 52 314 0.0 0.9 0.00 0.02 0.00 90 1013.1
20260506230157 52 45 0.0 1.7 0.00 0.02 0.00 90 1013.1
20260506230050 51 0.0 0.0 0.00 0.23 0.00 100 1013.6
20260506225433 52 45 0.0 1.7 0.00 0.02 0.00 90 1013.1
20260506224933 52 45 0.9 0.9 0.00 0.02 0.00 89 1013.1
20260506224539 52 0 0.0 0.0 0.00 0.23 0.00 100 1013.8
20260506224433 52 45 0.0 0.9 0.00 0.02 0.00 89 1013.3
20260506223932 52 89 0.0 0.9 0.00 0.02 0.00 90 1013.3
20260506223432 52 269 0.0 0.9 0.00 0.02 0.00 90 1013.3
20260506223040 52 0 0.0 0.0 0.00 0.23 0.00 100 1013.9
20260506222933 52 45 0.0 0.9 0.00 0.02 0.00 90 1013.4
20260506222432 52 241 0.0 0.9 0.00 0.02 0.00 90 1013.6
20260506221932 53 89 0.0 0.9 0.00 0.02 0.00 89 1013.6
20260506221542 0 0 0.0 0.0 0.00 0.23 0.00 100 1014.1
20260506221432 53 314 0.0 0.9 0.00 0.02 0.00 89 1013.5
20260506221155 53 135 0.9 0.9 0.00 0.02 0.00 89 1013.8
20260506220432 53 152 0.0 1.7 0.00 0.02 0.00 89 1013.8
20260506220045 0 0 0.0 0.9 0.00 0.23 0.00 100 1014.3
20260506215932 53 157 0.9 1.7 0.00 0.02 0.02 88 1013.8
20260506215431 53 152 0.0 0.9 0.00 0.02 0.02 88 1013.9
20260506215150 53 161 0.0 0.9 0.00 0.02 0.02 88 1013.9
20260506214701 53 178 0.0 0.9 0.00 0.02 0.02 88 1013.8
20260506214538 0 0.0 0.9 0.00 0.23 0.23 1014.3
20260506213932 54 1 0.0 0.9 0.00 0.02 0.02 88 1013.9
20260506213431 54 45 0.0 0.9 0.00 0.02 0.02 88 1013.8
20260506213040 0 0.0 0.0 0.00 0.23 0.23 1014.3
20260506212931 54 269 0.0 0.9 0.00 0.02 0.02 87 1013.9
20260506212653 54 1 0.0 0.9 0.00 0.02 0.02 87 1013.9
20260506211931 54 45 0.0 0.9 0.00 0.02 0.02 87 1013.8
20260506211537 54 0 0.0 0.0 0.00 0.23 0.23 100 1014.3
20260506211431 54 1 0.0 1.7 0.00 0.02 0.02 87 1013.8
20260506210931 54 1 0.9 1.7 0.00 0.02 0.02 87 1013.8
20260506210431 54 314 0.0 0.9 0.00 0.02 0.02 87 1013.9
20260506210052 54 9 0.9 0.9 0.00 0.23 0.23 100 1014.3
20260506205931 54 1 0.0 0.9 0.00 0.02 0.02 87 1013.8
20260506205431 55 1 0.9 0.9 0.00 0.02 0.02 87 1013.9
20260506204931 55 45 0.0 1.7 0.00 0.02 0.02 87 1013.9
20260506204538 54 0 0.0 0.9 0.00 0.23 0.23 100 1014.4
20260506204430 55 45 0.0 1.7 0.00 0.02 0.02 87 1013.9
20260506203931 55 269 0.0 1.7 0.00 0.02 0.02 87 1013.9
20260506203430 55 1 0.9 1.7 0.00 0.02 0.02 87 1013.8
20260506203037 55 9 0.0 0.9 0.00 0.23 0.23 100 1014.3
20260506202931 55 45 0.9 1.7 0.00 0.02 0.02 87 1013.8
20260506202429 55 1 0.9 1.7 0.00 0.02 0.02 87 1013.8
20260506201931 55 28 0.9 1.7 0.00 0.02 0.02 87 1013.6
20260506201539 55 0.9 1.7 0.00 0.23 0.23 100 1014.1
20260506201430 55 20 0.9 2.6 0.00 0.02 0.02 87 1013.6
20260506201153 55 20 1.7 2.6 0.00 0.02 0.02 86 1013.5
20260506200429 55 23 0.9 1.7 0.00 0.02 0.02 86 1013.5
20260506200037 55 30 1.7 1.7 0.00 0.23 0.23 100 1014.1
20260506195930 55 20 0.9 1.7 0.00 0.02 0.02 86 1013.5
20260506195429 55 1 0.9 1.7 0.00 0.02 0.02 86 1013.6
20260506194930 55 10 0.9 1.7 0.00 0.02 0.02 85 1013.6
20260506194540 55 24 0.9 1.7 0.00 0.23 0.23 100 1014.2
20260506194429 55 10 1.7 1.7 0.00 0.02 0.02 85 1013.8
20260506193930 55 17 1.7 2.6 0.00 0.02 0.02 84 1013.6
20260506193429 55 20 0.9 2.6 0.00 0.02 0.02 85 1013.6
20260506193038 55 9 1.7 1.7 0.00 0.23 0.23 100 1014.2
20260506192930 56 1 1.7 2.6 0.00 0.02 0.02 84 1013.8
20260506192429 56 28 1.7 2.6 0.00 0.02 0.02 84 1013.8
20260506191929 56 337 0.9 1.7 0.00 0.02 0.02 84 1013.6
20260506191538 55 292 0.9 1.7 0.00 0.23 0.23 100 1014.0
20260506191428 56 45 0.9 2.6 0.00 0.02 0.02 84 1013.6
20260506191200 56 327 0.9 2.6 0.00 0.02 0.02 83 1013.6
20260506190428 56 350 0.9 2.6 0.00 0.02 0.02 84 1013.6
20260506190039 55 31 1.7 1.7 0.00 0.23 0.23 100 1014.1
20260506185929 56 30 1.7 3.5 0.00 0.02 0.02 84 1013.6
20260506185427 56 1 1.7 4.3 0.00 0.02 0.02 83 1013.5
20260506184931 56 20 2.6 4.3 0.00 0.02 0.02 83 1013.5
20260506184540 56 28 2.6 3.5 0.00 0.23 0.23 100 1014.0
20260506184428 56 23 2.6 4.3 0.00 0.02 0.02 83 1013.5
20260506183929 56 353 2.6 4.3 0.00 0.02 0.02 82 1013.5
20260506183646 56 44 2.6 4.3 0.00 0.02 0.02 82 1013.6
20260506183042 56 45 2.6 3.5 0.00 0.23 0.23 82 1014.1
20260506182929 56 23 2.6 4.3 0.00 0.02 0.02 82 1013.8
20260506182427 56 24 1.7 4.3 0.00 0.02 0.02 82 1013.8
20260506182154 56 321 1.7 5.2 0.00 0.02 0.02 81 1013.6
20260506181540 0 9 0.9 2.6 0.00 0.23 0.23 1014.2
20260506181427 56 13 1.7 5.2 0.00 0.02 0.02 81 1013.8
20260506180928 56 39 1.7 4.3 0.00 0.02 0.02 81 1013.8
20260506180426 57 27 3.5 4.3 0.00 0.02 0.02 78 1013.6
20260506180150 57 32 3.5 5.2 0.00 0.02 0.02 78 1013.8
20260506180041 60 3.5 7.0 0.00 0.23 0.23 73 1014.1
20260506175426 58 14 4.3 7.8 0.00 0.02 0.02 77 1013.8
20260506174927 58 11 4.3 7.8 0.00 0.02 0.02 76 1013.6
20260506174538 60 33 4.3 7.0 0.00 0.23 0.23 73 1014.2
20260506174426 59 24 5.2 7.8 0.00 0.02 0.02 75 1013.6
20260506173928 60 21 4.3 6.1 0.00 0.02 0.02 72 1013.6
20260506173426 61 330 2.6 4.3 0.00 0.02 0.02 71 1013.8
20260506173148 61 329 1.7 6.1 0.00 0.02 0.02 70 1013.8
20260506173044 60 239 1.7 1.7 0.00 0.23 0.23 72 1014.2
20260506172653 61 323 3.5 9.6 0.00 0.02 0.02 72 1013.9
20260506171927 61 234 1.7 9.6 0.00 0.02 0.02 71 1013.9
20260506171548 60 316 2.6 5.2 0.00 0.23 0.23 71 1014.3
20260506171426 61 344 3.5 7.8 0.00 0.02 0.02 73 1013.9
20260506170927 61 241 1.7 5.2 0.00 0.02 0.02 72 1013.9
20260506170425 60 331 1.7 5.2 0.00 0.02 0.02 73 1013.9
20260506170038 60 319 3.5 4.3 0.00 0.23 0.23 73 1014.4
20260506165926 60 216 1.7 4.3 0.00 0.02 0.02 74 1013.9
20260506165426 60 230 2.6 5.2 0.00 0.02 0.02 73 1014.1
20260506164926 60 341 2.6 5.2 0.00 0.02 0.02 74 1014.2
20260506164532 60 38 1.7 3.5 0.00 0.23 0.23 73 1014.6
20260506164425 60 348 3.5 6.1 0.00 0.02 0.02 73 1014.2
20260506163926 61 351 2.6 6.1 0.00 0.02 0.02 74 1014.1
20260506163424 61 309 1.7 5.2 0.00 0.02 0.02 74 1014.0
20260506163039 60 239 2.6 6.1 0.00 0.23 0.23 74 1014.5
20260506162926 60 251 3.5 5.2 0.00 0.02 0.02 74 1014.0
20260506162645 60 312 3.5 5.2 0.00 0.02 0.02 74 1014.0
20260506161925 60 272 3.5 7.8 0.00 0.02 0.02 74 1014.0
20260506161642 60 276 4.3 7.8 0.00 0.02 0.02 77 1014.1
20260506161542 59 279 3.5 7.0 0.00 0.23 0.23 97 1014.5
20260506160925 60 330 4.3 8.7 0.00 0.02 0.02 76 1014.1
20260506160424 59 323 4.3 8.7 0.00 0.02 0.02 76 1014.2
20260506160045 59 321 1.7 7.0 0.00 0.23 0.23 97 1014.6
20260506155925 59 347 1.7 7.8 0.00 0.02 0.02 77 1014.2
20260506155424 59 330 3.5 7.8 0.00 0.02 0.02 77 1014.3
20260506154925 59 343 3.5 7.8 0.00 0.02 0.02 77 1014.3
20260506154641 59 323 1.7 6.1 0.00 0.02 0.02 76 1014.2
20260506154535 59 342 2.6 5.2 0.00 0.23 0.23 96 1014.6
20260506153925 59 306 2.6 6.1 0.00 0.02 0.02 75 1014.3
20260506153424 59 320 1.7 5.2 0.00 0.02 0.02 75 1014.3
20260506153040 59 257 1.7 3.5 0.00 0.23 0.23 74 1014.7
20260506152924 59 38 1.7 5.2 0.00 0.02 0.02 73 1014.3
20260506152423 59 345 3.5 7.8 0.00 0.02 0.02 75 1014.3
20260506151925 59 254 4.3 7.8 0.00 0.02 0.02 76 1014.3
20260506151543 59 273 4.3 5.2 0.00 0.23 0.23 76 1014.7
20260506151423 59 316 5.2 6.1 0.00 0.02 0.02 76 1014.3
20260506150924 59 279 3.5 6.1 0.00 0.02 0.02 78 1014.4
20260506150422 59 247 3.5 5.2 0.00 0.02 0.02 80 1014.4
20260506150038 58 293 2.6 3.5 0.00 0.23 0.23 100 1014.9
20260506145924 58 331 2.6 4.3 0.00 0.02 0.02 82 1014.5
20260506145909 58 265 1.7 6.1 0.00 0.02 0.02 82 1014.5
20260506144924 57 306 2.6 6.1 0.00 0.02 0.02 83 1014.6
20260506144552 57 344 1.7 3.5 0.00 0.23 0.23 100 1015.0
20260506144422 57 117 1.7 3.5 0.00 0.02 0.02 84 1014.6
20260506143925 57 300 2.6 3.5 0.00 0.02 0.02 84 1014.6
20260506143422 57 292 1.7 5.2 0.00 0.02 0.02 84 1014.7
20260506143037 57 325 1.7 3.5 0.00 0.23 0.23 79 1015.1
20260506142923 57 338 2.6 5.2 0.00 0.02 0.02 84 1014.8
20260506142422 57 321 0.9 3.5 0.00 0.02 0.02 83 1014.7
20260506141923 57 283 1.7 2.6 0.00 0.02 0.02 83 1014.7
20260506141532 57 16 0.9 2.6 0.00 0.23 0.23 79 1015.1
20260506141422 57 286 0.9 3.5 0.00 0.02 0.02 82 1014.8
20260506140923 58 135 1.7 3.5 0.00 0.02 0.02 80 1014.8
20260506140422 58 254 1.7 2.6 0.00 0.02 0.02 80 1014.8
20260506140035 58 257 0.9 1.7 0.00 0.23 0.23 79 1015.3
20260506135923 58 254 1.7 2.6 0.00 0.02 0.02 79 1015.0
20260506135421 58 331 0.9 2.6 0.00 0.02 0.02 79 1014.9
20260506134922 59 300 1.7 2.6 0.00 0.02 0.02 78 1015.0
20260506134538 58 265 0.9 2.6 0.00 0.23 0.23 77 1015.3
20260506134421 59 337 0.9 4.3 0.00 0.02 0.02 78 1014.9
20260506133922 59 269 1.7 4.3 0.00 0.02 0.02 78 1015.0
20260506133420 59 309 0.9 3.5 0.00 0.02 0.02 76 1015.0
20260506133039 0 1.7 1.7 0.00 0.23 0.23 74 1015.4
20260506132922 59 323 1.7 3.5 0.00 0.02 0.02 75 1015.0
20260506132910 59 16 1.7 3.5 0.00 0.02 0.02 77 1015.1
20260506131922 59 290 1.7 4.3 0.00 0.02 0.02 75 1015.0
20260506131647 59 20 3.5 5.2 0.00 0.02 0.02 73 1015.0
20260506131543 59 32 3.5 3.5 0.00 0.23 0.23 72 1015.4
20260506130921 59 42 3.5 5.2 0.00 0.02 0.02 72 1015.0
20260506130420 60 30 1.7 2.6 0.00 0.02 0.02 73 1015.1
20260506130035 59 178 0.9 4.3 0.00 0.23 0.23 1015.4
20260506125921 60 75 1.7 4.3 0.00 0.02 0.02 74 1015.1
20260506125641 60 56 1.7 4.3 0.00 0.02 0.02 73 1015.1
20260506124921 59 63 1.7 3.5 0.00 0.02 0.02 75 1015.1
20260506124643 58 348 1.7 4.3 0.00 0.02 0.02 73 1015.1
20260506124534 0 0 0.0 0.0 0.00 0.23 0.23 1015.5
20260506123920 58 6 2.6 4.3 0.00 0.02 0.02 74 1015.2
20260506123420 58 8 3.5 4.3 0.00 0.02 0.02 78 1015.2
20260506123039 58 54 2.6 3.5 0.00 0.23 0.23 98 1015.6
20260506122921 58 39 2.6 4.3 0.00 0.02 0.02 77 1015.3
20260506122419 58 35 2.6 5.2 0.00 0.02 0.02 78 1015.3
20260506121920 58 51 2.6 5.2 0.00 0.02 0.02 77 1015.4
20260506121539 58 78 2.6 4.3 0.00 0.23 0.23 97 1015.7
20260506121419 58 21 2.6 5.2 0.00 0.02 0.02 77 1015.4
20260506120920 58 16 3.5 5.2 0.00 0.02 0.02 76 1015.5
20260506120420 58 72 1.7 5.2 0.00 0.02 0.02 78 1015.4
20260506120145 58 66 2.6 3.5 0.00 0.02 0.02 78 1015.5
20260506120036 58 338 2.6 3.5 0.00 0.23 0.23 99 1015.8
20260506115418 59 28 1.7 5.2 0.00 0.02 0.02 79 1015.5
20260506114920 59 324 3.5 5.2 0.00 0.02 0.02 79 1015.5
20260506114541 58 9 3.5 5.2 0.00 0.23 0.23 99 1015.8
20260506114419 59 330 2.6 5.2 0.00 0.02 0.02 79 1015.5
20260506113919 59 76 1.7 5.2 0.00 0.02 0.02 80 1015.6
20260506113418 59 16 3.5 5.2 0.00 0.02 0.02 83 1015.6
20260506113035 57 342 1.7 2.6 0.00 0.23 0.23 100 1015.9
20260506112919 58 20 1.7 6.1 0.00 0.02 0.02 84 1015.7
20260506112402 58 347 3.5 6.1 0.00 0.02 0.02 86 1015.7
20260506111902 58 334 3.5 6.1 0.00 0.02 0.02 86 1015.7
20260506111539 57 26 0.9 1.7 0.00 0.23 0.23 100 1015.9
20260506111402 57 286 1.7 6.1 0.00 0.02 0.02 87 1015.6
20260506110902 57 341 3.5 5.2 0.00 0.02 0.02 87 1015.7
20260506110403 57 351 3.5 5.2 0.00 0.02 0.02 86 1015.8
20260506110125 57 76 3.5 5.2 0.00 0.02 0.02 84 1015.7
20260506110039 57 317 1.7 7.8 0.00 0.23 0.23 100 1016.0
20260506105627 57 353 1.7 7.8 0.00 0.02 0.02 82 1015.7
20260506104904 58 344 4.3 7.8 0.00 0.02 0.02 81 1015.8
20260506104537 58 323 3.5 4.3 0.00 0.23 0.23 100 1016.0
20260506104401 58 354 2.6 3.5 0.00 0.02 0.02 81 1015.7
20260506104124 58 344 1.7 3.5 0.00 0.03 0.02 81 1015.7
20260506103402 58 319 1.7 2.6 0.00 0.03 0.02 80 1015.8
20260506103123 58 23 0.9 3.5 0.00 0.03 0.02 81 1015.8
20260506103038 58 282 0.9 2.6 0.00 0.23 0.23 100 1016.0
20260506102403 58 35 1.7 3.5 0.00 0.03 0.02 82 1015.7
20260506101904 58 1 0.9 2.6 0.00 0.03 0.02 82 1015.7
20260506101533 57 26 0.9 1.7 0.00 0.23 0.23 100 1015.9
20260506101402 58 306 1.7 2.6 0.00 0.04 0.02 82 1015.6
20260506100903 0 1 1.7 1.7 0.00 0.04 0.02 1015.5
20260506100402 0 0.0 0.0 0.00 0.04 0.02 1015.6
20260506100127 0 0.0 0.0 0.00 0.04 0.02 1015.6
20260506100046 53 309 0.0 0.9 0.00 0.23 0.23 100 1015.8
20260506095620 0 0.0 0.0 0.00 0.04 0.02 1015.6
20260506094903 0 0.0 0.0 0.00 0.04 0.02 1015.6
20260506094540 53 265 0.0 0.9 0.00 0.23 0.23 100 1015.9
20260506094402 0 269 0.0 0.9 0.00 0.04 0.02 1015.7
20260506093903 55 269 0.0 0.9 0.00 0.04 0.02 92 1015.7
20260506093622 55 35 0.0 0.9 0.00 0.08 0.02 92 1015.7
20260506093037 53 0 0.0 0.9 0.00 0.23 0.23 100 1015.9
20260506092904 55 241 0.9 1.7 0.00 0.08 0.02 92 1015.6
20260506092402 55 231 0.9 1.7 0.00 0.08 0.02 93 1015.6
20260506092125 54 45 0.9 1.7 0.00 0.09 0.02 93 1015.6
20260506091536 53 212 0.0 1.7 0.00 0.23 0.23 100 1015.9
20260506091402 54 213 0.9 2.6 0.00 0.09 0.02 93 1015.7
20260506090902 54 152 1.7 2.6 0.00 0.09 0.02 93 1015.7
20260506090402 54 1 0.9 2.6 0.00 0.09 0.02 94 1015.7
20260506090035 53 298 0.0 1.7 0.23 0.23 0.23 100 1015.9
20260506085901 54 223 0.9 1.7 0.00 0.09 0.02 94 1015.6
20260506085848 53 269 0.9 1.7 0.00 0.09 0.02 94 1015.7
20260506084902 53 178 0.9 1.7 0.00 0.09 0.02 95 1015.7
20260506084540 53 26 0.9 1.7 0.23 0.23 0.23 100 1016.0
20260506084401 53 341 0.9 1.7 0.00 0.09 0.02 95 1015.7
20260506083903 53 324 0.9 1.7 0.00 0.09 0.02 95 1015.7
20260506083402 54 331 0.9 1.7 0.00 0.09 0.02 95 1015.6
20260506083126 53 213 0.9 1.7 0.00 0.09 0.02 96 1015.6
20260506083039 52 265 0.0 1.7 0.23 0.23 0.23 100 1015.9
20260506082402 53 314 0.9 1.7 0.00 0.09 0.02 95 1015.7
20260506081902 53 178 0.9 1.7 0.00 0.09 0.02 96 1015.7
20260506081535 49 221 0.9 1.7 0.23 0.23 0.23 100 1015.9
20260506081401 53 152 0.9 1.7 0.00 0.09 0.02 96 1015.7
20260506080902 53 197 0.9 1.7 0.00 0.09 0.02 96 1015.8
20260506080625 52 45 0.9 0.9 0.00 0.09 0.02 96 1015.7
20260506080122 52 223 0.0 0.9 0.00 0.09 0.02 95 1015.8
20260506073125 51 178 1.7 2.6 0.00 0.11 0.02 95 1015.7
20260506073035 49 153 1.7 2.6 0.00 0.00 0.00 100 1015.9
20260506072402 51 138 1.7 2.6 0.00 0.11 0.02 95 1015.7
20260506071902 51 157 1.7 2.6 0.00 0.11 0.02 95 1015.6
20260506071542 49 0 0.9 1.7 0.00 0.00 0.00 100 1015.9
20260506071402 51 89 0.9 1.7 0.00 0.11 0.02 95 1015.7
20260506070902 51 178 0.0 1.7 0.00 0.11 0.02 95 1015.6
20260506070401 51 1 0.9 1.7 0.00 0.11 0.02 95 1015.7
20260506062403 50 147 1.7 2.6 0.01 0.11 0.01 95 1015.4
20260506061902 50 154 2.6 3.5 0.01 0.11 0.01 95 1015.4
20260506061536 49 163 1.7 2.6 0.00 0.03 0.00 100 1015.6
20260506061404 50 147 2.6 3.5 0.01 0.11 0.01 95 1015.4
20260506060902 50 151 1.7 2.6 0.01 0.12 0.01 95 1015.3
20260506060403 50 314 0.0 0.9 0.01 0.12 0.01 94 1015.3
20260506051124 49 135 0.0 2.6 0.00 0.11 0.01 95 1015.2
20260506050402 49 89 0.9 2.6 0.00 0.11 0.01 95 1015.1
20260506044903 49 152 0.9 2.6 0.00 0.11 0.01 94 1015.1
20260506044543 49 144 1.7 2.6 0.00 0.03 0.00 100 1015.4
20260506044401 49 157 1.7 2.6 0.00 0.11 0.00 94 1015.1
20260506043902 49 45 0.0 1.7 0.00 0.11 0.00 94 1015.2
20260506043402 49 157 0.9 0.9 0.00 0.11 0.00 94 1015.1
20260506043132 49 152 0.9 0.9 0.00 0.11 0.00 94 1015.2
20260506043041 49 51 0.0 0.9 0.00 0.03 0.00 100 1015.5
20260506042401 50 213 0.0 1.7 0.00 0.11 0.00 94 1015.2
20260506041902 50 59 0.9 1.7 0.00 0.11 0.00 94 1015.2
20260506041539 49 34 0.0 1.7 0.00 0.03 0.00 100 1015.6
20260506041402 49 45 0.0 2.6 0.00 0.11 0.00 94 1015.4
20260506040901 49 161 0.9 2.6 0.00 0.11 0.00 94 1015.3
20260506040402 49 152 0.9 2.6 0.00 0.11 0.00 94 1015.3
20260506040039 49 160 0.9 1.7 0.00 0.03 0.00 100 1015.7
20260506035902 49 145 1.7 1.7 0.00 0.11 0.00 94 1015.3
20260506035401 49 140 0.9 1.7 0.00 0.11 0.00 93 1015.4
20260506035126 49 135 0.9 1.7 0.00 0.11 0.00 93 1015.4
20260506034539 49 0 0.0 0.9 0.00 0.03 0.00 100 1015.7
20260506034401 50 142 0.9 1.7 0.00 0.11 0.00 94 1015.4
20260506033903 50 269 0.0 0.9 0.00 0.11 0.00 94 1015.4
20260506033402 50 45 0.0 0.9 0.00 0.11 0.00 94 1015.4
20260506033036 49 0 0.0 0.9 0.00 0.03 0.00 100 1015.8
20260506032903 50 135 0.0 1.7 0.00 0.11 0.00 94 1015.5
20260506032402 50 117 0.0 1.7 0.00 0.11 0.00 94 1015.5
20260506032123 50 63 0.0 0.9 0.00 0.11 0.00 94 1015.5
20260506031627 50 178 0.0 1.7 0.00 0.11 0.00 94 1015.6
20260506031539 0 0 0.0 0.9 0.00 0.03 0.00 100 1015.9
20260506030902 50 178 0.0 1.7 0.00 0.11 0.00 94 1015.6
20260506030402 50 152 0.9 1.7 0.00 0.11 0.00 94 1015.5
20260506030057 0 137 0.0 0.9 0.00 0.03 0.00 100 1015.9
20260506025903 50 63 0.0 1.7 0.00 0.11 0.00 94 1015.6
20260506025401 50 161 0.9 1.7 0.00 0.11 0.00 94 1015.7
20260506024902 50 178 0.9 1.7 0.00 0.11 0.00 93 1015.7
20260506024552 0 178 0.0 0.9 0.00 0.03 0.00 100 1015.9
20260506024402 50 223 0.0 0.9 0.00 0.11 0.00 93 1015.7
20260506023902 50 178 0.0 0.9 0.00 0.11 0.00 93 1015.7
20260506023619 50 1 0.0 0.9 0.00 0.11 0.00 93 1015.7
20260506023038 0 0 0.0 0.9 0.00 0.03 0.00 100 1015.9
20260506022901 50 117 0.0 0.9 0.00 0.11 0.00 93 1015.7
20260506022850 50 135 0.0 0.9 0.00 0.11 0.00 93 1015.8
20260506022123 50 135 0.0 1.7 0.00 0.11 0.00 93 1015.7
20260506021536 49 0.0 0.9 0.00 0.03 0.00 100 1016.1
20260506021402 50 178 0.0 1.7 0.00 0.11 0.00 93 1015.8
20260506020902 50 45 0.0 0.9 0.00 0.11 0.00 93 1015.8
20260506020401 50 223 0.9 0.9 0.00 0.11 0.00 93 1015.8
20260506020039 49 51 0.0 0.9 0.00 0.03 0.00 100 1016.1